Beverly, MA

10:59 AM EDT on June 22, 2017 (GMT -0400)
Beverly Municipal

Weather History for KBVY - May, 2013

Change the Weather History Date:

Saturday, May 18, 2013

  Actual Average Record
Temperature  
Mean Temperature 56 °F -  
Max Temperature 70 °F 62 °F 93 °F (2017)
Min Temperature 44 °F 43 °F 30 °F (2003)
Degree Days  
Heating Degree Days 8    
Growing Degree Days 6 (Base 50)    
Moisture  
Dew Point 44 °F    
Average Humidity 66    
Maximum Humidity 89    
Minimum Humidity 35    
Precipitation  
Precipitation 0.00 in - - ()
Sea Level Pressure  
Sea Level Pressure 30.25 in    
Wind  
Wind Speed 4 mph (ESE)    
Max Wind Speed 15 mph    
Max Gust Speed 22 mph    
Visibility 10 miles    
Events      
Averages and records for this station are not official NWS values.
T = Trace of Precipitation, MM = Missing Value Source: NWS Daily Summary

Daily Weather History Graph

Daily Weather History Graph

Search for Another Location

Airport or City:

Trip Planner

Search our weather history database for the weather conditions in past years. The results will help you decide how hot, cold, wet, or windy it might be!

Date:

Astronomy

May. 18, 2013 Rise Set
Actual Time 5:18 AM EDT 8:02 PM EDT
Civil Twilight 4:45 AM EDT 8:35 PM EDT
Nautical Twilight 4:04 AM EDT 9:16 PM EDT
Astronomical Twilight 3:17 AM EDT 10:03 PM EDT
Moon 12:53 PM EDT (5/18) 1:18 AM EDT (5/18)
Length of Visible Light 15h 49m
Length of Day
14h 43m
First Quarter, 55% of the Moon is Illuminated
May 18
First Quarter
May 25
Full
May 31
Last Quarter
Jun 8
New
Jun 16
First Quarter

Hourly Weather History & Observations

Time (EDT) Temp. Dew Point Humidity Pressure Visibility Wind Dir Wind Speed Gust Speed Precip Events Conditions
12:53 AM 46.0 °F 41.0 °F 83% 30.20 in 10.0 mi Calm Calm - N/A   Overcast
1:53 AM 48.0 °F 42.1 °F 80% 30.21 in 10.0 mi Calm Calm - N/A   Scattered Clouds
2:53 AM 45.0 °F 39.9 °F 82% 30.20 in 10.0 mi Calm Calm - N/A   Clear
3:53 AM 45.0 °F 41.0 °F 86% 30.21 in 10.0 mi Calm Calm - N/A   Clear
4:53 AM 44.1 °F 39.9 °F 85% 30.23 in 10.0 mi Calm Calm - N/A   Clear
5:53 AM 44.1 °F 41.0 °F 89% 30.25 in 10.0 mi Calm Calm - N/A   Clear
6:53 AM 50.0 °F 43.0 °F 77% 30.26 in 10.0 mi NW 3.5 mph - N/A   Clear
7:53 AM 55.9 °F 44.1 °F 64% 30.28 in 10.0 mi NNW 3.5 mph - N/A   Clear
8:53 AM 62.1 °F 43.0 °F 50% 30.30 in 10.0 mi Calm Calm - N/A   Clear
9:53 AM 66.0 °F 41.0 °F 40% 30.29 in 10.0 mi North 6.9 mph - N/A   Clear
10:53 AM 68.0 °F 41.0 °F 37% 30.28 in 10.0 mi Variable 4.6 mph - N/A   Clear
11:53 AM 69.1 °F 39.9 °F 35% 30.27 in 10.0 mi Variable 3.5 mph - N/A   Clear
12:53 PM 64.0 °F 44.1 °F 48% 30.26 in 10.0 mi ESE 11.5 mph 18.4 mph N/A   Scattered Clouds
1:53 PM 64.9 °F 43.0 °F 45% 30.26 in 10.0 mi ESE 12.7 mph - N/A   Scattered Clouds
2:53 PM 64.4 °F 42.8 °F 45% 30.26 in 10.0 mi SE 12.7 mph - N/A   Mostly Cloudy
3:53 PM 61.0 °F 46.9 °F 60% 30.26 in 10.0 mi SE 15.0 mph 21.9 mph N/A   Partly Cloudy
4:53 PM 60.1 °F 46.9 °F 62% 30.26 in 10.0 mi ESE 13.8 mph - N/A   Partly Cloudy
5:53 PM 60.1 °F 46.9 °F 62% 30.25 in 10.0 mi SE 11.5 mph - N/A   Clear
6:53 PM 57.9 °F 46.9 °F 67% 30.25 in 10.0 mi SE 11.5 mph - N/A   Partly Cloudy
7:53 PM 55.9 °F 50.0 °F 80% 30.25 in 10.0 mi SE 5.8 mph - N/A   Overcast
8:53 PM 57.0 °F 50.0 °F 77% 30.25 in 10.0 mi ENE 4.6 mph - N/A   Overcast
9:53 PM 54.0 °F 48.9 °F 83% 30.25 in 10.0 mi Calm Calm - 0.00 in   Mostly Cloudy
10:53 PM 59.0 °F 46.9 °F 64% 30.25 in 10.0 mi WSW 6.9 mph - N/A   Clear
11:53 PM 51.1 °F 46.9 °F 86% 30.27 in 10.0 mi North 8.1 mph - N/A   Partly Cloudy